Flag for Spain Weather past 2 weeks in Alicante, Spain

Now
86 °F

Passing clouds.


Feels Like: 87 °F
Forecast: 69 / 87 °F
Wind: 8 mph from East

Location: Alicante / El Altet

Current Time: Jul 24, 2014 at 3:35:11 PM

Latest Report: Jul 24, 2014 at 3:00 PM


Visibility: N/A

Pressure: 29.86 "Hg

Humidity: 49%

Dew point: 64 °F

Location of AlicanteLocation

Historic Weather in Alicante — Graph

°F

Alicante temperature yesterday

Maximum temperature yesterday: 91 °F (at 3:00 PM)
Minimum temperature yesterday: 68 °F (at 7:00 AM)
Average temperature yesterday: 80 °F

Past Weeks' High & Low Weather Summary

 TemperatureHumidityPressure
High91 °F (Jul 20, 2:00 PM)89% (Jul 14, 4:00 AM)30.12 "Hg (Jul 14, 4:00 AM)
Low68 °F (Jul 22, 5:00 AM)21% (Jul 20, 2:30 PM)29.80 "Hg (Jul 19, 5:30 PM)
Average78 °F62%29.99 "Hg
* Reported Jul 9 3:00 PM — Jul 24 2:30 PM, Alicante, Weather by CustomWeather, © 2014

Note: Actual official high and low records may vary slightly from our data, if they occured in-between our weather recording intervals... More about our weather records

Advertising

Alicante weather history for previous 24 hours

 ConditionsComfort  
Time TempWeatherWind HumidityBarometerVisibility
2:30 PM
Jul 24
84 °FPassing clouds.8 mph55%29.83 "HgN/A
2:00 PM84 °FPassing clouds.8 mph55%29.86 "HgN/A
1:30 PM82 °FPassing clouds.8 mph62%29.86 "HgN/A
1:00 PM82 °FPassing clouds.7 mph58%29.86 "HgN/A
12:30 PM82 °FPassing clouds.7 mph58%29.86 "HgN/A
12:00 PM82 °FPassing clouds.9 mph66%29.86 "HgN/A
11:30 AM81 °FPassing clouds.9 mph62%29.86 "HgN/A
11:00 AM81 °FPassing clouds.7 mph66%29.86 "HgN/A
10:30 AM81 °FPassing clouds.8 mph66%29.86 "HgN/A
10:00 AM79 °FPassing clouds.8 mph74%29.86 "HgN/A
9:30 AM79 °FScattered clouds.8 mph74%29.86 "HgN/A
9:00 AM77 °FPassing clouds.3 mph74%29.86 "HgN/A
8:30 AM77 °FPassing clouds.5 mph61%29.83 "HgN/A
7:30 AM73 °FPassing clouds.5 mph61%29.83 "HgN/A
7:00 AM73 °FClear.2 mph61%29.83 "Hg10 mi
6:30 AM73 °FPassing clouds.6 mph57%29.83 "HgN/A
6:00 AM73 °FClear.6 mph65%29.80 "Hg10 mi
5:30 AM73 °FClear.5 mph69%29.83 "Hg10 mi
5:00 AM72 °FClear.1 mph83%29.80 "Hg10 mi
4:30 AM72 °FPassing clouds.No wind78%29.80 "HgN/A
4:00 AM70 °FPassing clouds.1 mph78%29.80 "HgN/A
3:30 AM72 °FPassing clouds.1 mph73%29.83 "HgN/A
2:30 AM73 °FPassing clouds.1 mph74%29.83 "HgN/A
2:00 AM73 °FPassing clouds.2 mph74%29.83 "HgN/A
1:30 AM73 °FPassing clouds.1 mph69%29.83 "HgN/A
1:00 AM75 °FPassing clouds.2 mph69%29.83 "HgN/A
12:30 AM77 °FPassing clouds.No wind69%29.83 "HgN/A
12:00 AM77 °FPassing clouds.1 mph69%29.83 "HgN/A
11:30 PM
Jul 23
77 °FPassing clouds.No wind65%29.86 "HgN/A
11:00 PM79 °FPassing clouds.No wind70%29.86 "HgN/A
10:30 PM79 °FPassing clouds.No wind65%29.83 "HgN/A
10:00 PM81 °FPassing clouds.No wind58%29.83 "HgN/A
9:30 PM82 °FPassing clouds.No wind51%29.83 "HgN/A
9:00 PM84 °FSunny.1 mph45%29.83 "Hg10 mi
8:30 PM84 °FPassing clouds.3 mph43%29.83 "HgN/A
8:00 PM86 °FPassing clouds.3 mph35%29.80 "HgN/A
7:30 PM88 °FPassing clouds.7 mph31%29.80 "HgN/A
7:00 PM88 °FPassing clouds.5 mph40%29.80 "HgN/A
6:30 PM86 °FPassing clouds.7 mph49%29.80 "HgN/A
6:00 PM86 °FPassing clouds.8 mph49%29.83 "HgN/A
5:30 PM88 °FPassing clouds.10 mph46%29.83 "HgN/A
5:00 PM90 °FPassing clouds.10 mph38%29.83 "HgN/A
4:30 PM90 °FPassing clouds.9 mph33%29.83 "HgN/A
4:00 PM90 °FPassing clouds.10 mph31%29.83 "HgN/A
3:30 PM90 °FPassing clouds.10 mph27%29.86 "HgN/A
3:00 PM91 °FPassing clouds.6 mph23%29.86 "HgN/A
Weather by CustomWeather, © 2014

See weather overviewHow to use our weather pages